2016 Cux-Wetter.de -Die Nutzung der Wetterdaten nur mit ausdrcklicher Genehmigung
Wetterdaten: Mittwoch, 27.02.2019
Datum Zeit Temp. A. Feuchte A. Luftdruck Regen Wind Richtung Richtung Sonnenschein Solar Taupunkt Windchill Windben
27.02.2019 00:00 0,9 C 80 % 1030,4 hPa 0,0 l/m 1,8 km/h (1 Bft) W 278 0 min 0 W/m -2,2 C 0,9 C 3,2 km/h (1 Bft)
27.02.2019 00:03 0,8 C 80 % 1030,4 hPa 0,0 l/m 3,0 km/h (1 Bft) W 278 0 min 0 W/m -2,2 C 0,8 C 4,8 km/h (1 Bft)
27.02.2019 00:06 0,8 C 80 % 1030,4 hPa 0,0 l/m 3,1 km/h (1 Bft) W 278 0 min 0 W/m -2,2 C 0,8 C 4,8 km/h (1 Bft)
27.02.2019 00:09 0,7 C 80 % 1030,4 hPa 0,0 l/m 3,6 km/h (1 Bft) W 278 0 min 0 W/m -2,3 C 0,7 C 4,8 km/h (1 Bft)
27.02.2019 00:12 0,5 C 80 % 1030,3 hPa 0,0 l/m 2,8 km/h (1 Bft) W 278 0 min 0 W/m -2,5 C 0,5 C 3,2 km/h (1 Bft)
27.02.2019 00:15 0,3 C 81 % 1030,3 hPa 0,0 l/m 2,2 km/h (1 Bft) W 278 0 min 0 W/m -2,6 C 0,3 C 3,2 km/h (1 Bft)
27.02.2019 00:18 0,2 C 81 % 1030,3 hPa 0,0 l/m 2,7 km/h (1 Bft) W 278 0 min 0 W/m -2,7 C 0,2 C 4,8 km/h (1 Bft)
27.02.2019 00:21 0,1 C 82 % 1030,2 hPa 0,0 l/m 3,8 km/h (1 Bft) W 278 0 min 0 W/m -2,6 C 0,1 C 4,8 km/h (1 Bft)
27.02.2019 00:24 0,1 C 82 % 1030,3 hPa 0,0 l/m 3,1 km/h (1 Bft) W 278 0 min 0 W/m -2,6 C 0,1 C 3,2 km/h (1 Bft)
27.02.2019 00:27 0,1 C 83 % 1030,2 hPa 0,0 l/m 2,4 km/h (1 Bft) W 278 0 min 0 W/m -2,4 C 0,1 C 3,2 km/h (1 Bft)
27.02.2019 00:30 0,2 C 84 % 1030,2 hPa 0,0 l/m 3,5 km/h (1 Bft) W 278 0 min 0 W/m -2,2 C 0,2 C 4,8 km/h (1 Bft)
27.02.2019 00:33 0,3 C 84 % 1030,1 hPa 0,0 l/m 3,0 km/h (1 Bft) W 278 0 min 0 W/m -2,1 C 0,3 C 4,8 km/h (1 Bft)
27.02.2019 00:36 0,4 C 83 % 1030,1 hPa 0,0 l/m 2,8 km/h (1 Bft) W 278 0 min 0 W/m -2,1 C 0,4 C 4,8 km/h (1 Bft)
27.02.2019 00:39 0,6 C 83 % 1030,1 hPa 0,0 l/m 3,1 km/h (1 Bft) W 278 0 min 0 W/m -1,9 C 0,6 C 4,8 km/h (1 Bft)
27.02.2019 00:42 0,8 C 83 % 1030,1 hPa 0,0 l/m 3,3 km/h (1 Bft) W 278 0 min 0 W/m -1,8 C 0,8 C 4,8 km/h (1 Bft)
27.02.2019 00:45 0,9 C 81 % 1030,1 hPa 0,0 l/m 3,2 km/h (1 Bft) W 278 0 min 0 W/m -2,0 C 0,9 C 6,4 km/h (2 Bft)
27.02.2019 00:48 1,1 C 81 % 1030,1 hPa 0,0 l/m 2,5 km/h (1 Bft) W 278 0 min 0 W/m -1,8 C 1,1 C 4,8 km/h (1 Bft)
27.02.2019 00:51 1,4 C 79 % 1030,0 hPa 0,0 l/m 2,7 km/h (1 Bft) W 278 0 min 0 W/m -1,8 C 1,4 C 4,8 km/h (1 Bft)
27.02.2019 00:54 1,7 C 78 % 1030,0 hPa 0,0 l/m 3,5 km/h (1 Bft) W 278 0 min 0 W/m -1,7 C 1,7 C 4,8 km/h (1 Bft)
27.02.2019 00:57 1,9 C 76 % 1030,0 hPa 0,0 l/m 4,7 km/h (1 Bft) W 278 0 min 0 W/m -1,9 C 1,9 C 6,4 km/h (2 Bft)
27.02.2019 01:00 2,0 C 75 % 1029,9 hPa 0,0 l/m 4,5 km/h (1 Bft) W 278 0 min 0 W/m -2,0 C 2,0 C 4,8 km/h (1 Bft)
27.02.2019 01:03 2,1 C 74 % 1030,0 hPa 0,0 l/m 3,8 km/h (1 Bft) W 278 0 min 0 W/m -2,0 C 2,1 C 4,8 km/h (1 Bft)
27.02.2019 01:06 2,1 C 74 % 1029,9 hPa 0,0 l/m 3,0 km/h (1 Bft) W 278 0 min 0 W/m -2,0 C 2,1 C 3,2 km/h (1 Bft)
27.02.2019 01:09 2,1 C 74 % 1029,9 hPa 0,0 l/m 2,1 km/h (1 Bft) W 278 0 min 0 W/m -2,0 C 2,1 C 3,2 km/h (1 Bft)
27.02.2019 01:12 2,2 C 74 % 1030,0 hPa 0,0 l/m 2,0 km/h (1 Bft) W 278 0 min 0 W/m -1,9 C 2,2 C 3,2 km/h (1 Bft)
27.02.2019 01:15 2,3 C 73 % 1029,9 hPa 0,0 l/m 2,1 km/h (1 Bft) W 278 0 min 0 W/m -2,0 C 2,3 C 3,2 km/h (1 Bft)
27.02.2019 01:18 2,4 C 72 % 1029,9 hPa 0,0 l/m 1,9 km/h (1 Bft) W 278 0 min 0 W/m -2,1 C 2,4 C 3,2 km/h (1 Bft)
27.02.2019 01:21 2,6 C 72 % 1029,8 hPa 0,0 l/m 2,8 km/h (1 Bft) W 278 0 min 0 W/m -1,9 C 2,6 C 3,2 km/h (1 Bft)
27.02.2019 01:24 2,6 C 72 % 1029,8 hPa 0,0 l/m 3,9 km/h (1 Bft) W 278 0 min 0 W/m -1,9 C 2,6 C 4,8 km/h (1 Bft)
27.02.2019 01:27 2,5 C 72 % 1029,8 hPa 0,0 l/m 4,3 km/h (1 Bft) W 278 0 min 0 W/m -2,0 C 2,5 C 4,8 km/h (1 Bft)
27.02.2019 01:30 2,3 C 72 % 1029,8 hPa 0,0 l/m 4,8 km/h (1 Bft) W 278 0 min 0 W/m -2,2 C 2,3 C 6,4 km/h (2 Bft)
27.02.2019 01:33 2,2 C 73 % 1029,8 hPa 0,0 l/m 4,7 km/h (1 Bft) W 278 0 min 0 W/m -2,1 C 2,2 C 6,4 km/h (2 Bft)
27.02.2019 01:36 2,1 C 74 % 1029,8 hPa 0,0 l/m 4,4 km/h (1 Bft) W 278 0 min 0 W/m -2,0 C 2,1 C 4,8 km/h (1 Bft)
27.02.2019 01:39 2,1 C 74 % 1029,8 hPa 0,0 l/m 4,6 km/h (1 Bft) W 278 0 min 0 W/m -2,0 C 2,1 C 6,4 km/h (2 Bft)
27.02.2019 01:42 1,9 C 74 % 1029,7 hPa 0,0 l/m 4,1 km/h (1 Bft) W 278 0 min 0 W/m -2,2 C 1,9 C 4,8 km/h (1 Bft)
27.02.2019 01:45 1,8 C 74 % 1029,7 hPa 0,0 l/m 4,1 km/h (1 Bft) W 278 0 min 0 W/m -2,3 C 1,8 C 4,8 km/h (1 Bft)
27.02.2019 01:48 1,7 C 75 % 1029,6 hPa 0,0 l/m 3,9 km/h (1 Bft) W 278 0 min 0 W/m -2,2 C 1,7 C 4,8 km/h (1 Bft)
27.02.2019 01:51 1,8 C 75 % 1029,6 hPa 0,0 l/m 3,3 km/h (1 Bft) W 278 0 min 0 W/m -2,1 C 1,8 C 4,8 km/h (1 Bft)
27.02.2019 01:54 1,7 C 75 % 1029,6 hPa 0,0 l/m 3,7 km/h (1 Bft) W 278 0 min 0 W/m -2,2 C 1,7 C 4,8 km/h (1 Bft)
27.02.2019 01:57 1,7 C 75 % 1029,6 hPa 0,0 l/m 4,7 km/h (1 Bft) W 278 0 min 0 W/m -2,2 C 1,7 C 6,4 km/h (2 Bft)
27.02.2019 02:00 1,7 C 76 % 1029,5 hPa 0,0 l/m 5,0 km/h (1 Bft) W 278 0 min 0 W/m -2,1 C 1,7 C 6,4 km/h (2 Bft)
27.02.2019 02:03 1,7 C 76 % 1029,5 hPa 0,0 l/m 4,8 km/h (1 Bft) W 278 0 min 0 W/m -2,1 C 1,7 C 6,4 km/h (2 Bft)
27.02.2019 02:06 1,5 C 76 % 1029,5 hPa 0,0 l/m 4,4 km/h (1 Bft) W 278 0 min 0 W/m -2,3 C 1,5 C 6,4 km/h (2 Bft)
27.02.2019 02:09 1,5 C 76 % 1029,5 hPa 0,0 l/m 4,0 km/h (1 Bft) W 278 0 min 0 W/m -2,3 C 1,5 C 4,8 km/h (1 Bft)
27.02.2019 02:12 1,7 C 77 % 1029,5 hPa 0,0 l/m 3,4 km/h (1 Bft) W 278 0 min 0 W/m -1,9 C 1,7 C 4,8 km/h (1 Bft)
27.02.2019 02:15 1,9 C 77 % 1029,5 hPa 0,0 l/m 3,0 km/h (1 Bft) W 278 0 min 0 W/m -1,7 C 1,9 C 4,8 km/h (1 Bft)
27.02.2019 02:18 2,1 C 76 % 1029,4 hPa 0,0 l/m 3,8 km/h (1 Bft) W 278 0 min 0 W/m -1,7 C 2,1 C 4,8 km/h (1 Bft)
27.02.2019 02:21 2,2 C 75 % 1029,4 hPa 0,0 l/m 4,7 km/h (1 Bft) W 278 0 min 0 W/m -1,8 C 2,2 C 4,8 km/h (1 Bft)
27.02.2019 02:24 2,2 C 75 % 1029,3 hPa 0,0 l/m 4,6 km/h (1 Bft) W 278 0 min 0 W/m -1,8 C 2,2 C 6,4 km/h (2 Bft)
27.02.2019 02:27 2,3 C 75 % 1029,3 hPa 0,0 l/m 4,3 km/h (1 Bft) W 278 0 min 0 W/m -1,7 C 2,3 C 4,8 km/h (1 Bft)
27.02.2019 02:30 2,4 C 74 % 1029,2 hPa 0,0 l/m 3,6 km/h (1 Bft) W 278 0 min 0 W/m -1,7 C 2,4 C 4,8 km/h (1 Bft)
27.02.2019 02:33 2,6 C 73 % 1029,1 hPa 0,0 l/m 2,7 km/h (1 Bft) W 278 0 min 0 W/m -1,7 C 2,6 C 3,2 km/h (1 Bft)
27.02.2019 02:36 2,6 C 72 % 1029,1 hPa 0,0 l/m 2,6 km/h (1 Bft) W 278 0 min 0 W/m -1,9 C 2,6 C 3,2 km/h (1 Bft)
27.02.2019 02:39 2,5 C 72 % 1029,1 hPa 0,0 l/m 3,2 km/h (1 Bft) W 278 0 min 0 W/m -2,0 C 2,5 C 4,8 km/h (1 Bft)
27.02.2019 02:42 2,3 C 72 % 1029,0 hPa 0,0 l/m 2,7 km/h (1 Bft) W 278 0 min 0 W/m -2,2 C 2,3 C 4,8 km/h (1 Bft)
27.02.2019 02:45 2,0 C 73 % 1029,0 hPa 0,0 l/m 3,1 km/h (1 Bft) W 278 0 min 0 W/m -2,3 C 2,0 C 4,8 km/h (1 Bft)
27.02.2019 02:48 1,9 C 74 % 1029,0 hPa 0,0 l/m 2,6 km/h (1 Bft) W 278 0 min 0 W/m -2,2 C 1,9 C 3,2 km/h (1 Bft)
27.02.2019 02:51 1,9 C 75 % 1028,9 hPa 0,0 l/m 2,7 km/h (1 Bft) W 278 0 min 0 W/m -2,1 C 1,9 C 3,2 km/h (1 Bft)
27.02.2019 02:54 1,9 C 74 % 1028,9 hPa 0,0 l/m 3,2 km/h (1 Bft) W 278 0 min 0 W/m -2,2 C 1,9 C 4,8 km/h (1 Bft)
27.02.2019 02:57 1,9 C 74 % 1028,8 hPa 0,0 l/m 2,9 km/h (1 Bft) W 278 0 min 0 W/m -2,2 C 1,9 C 3,2 km/h (1 Bft)
27.02.2019 03:00 1,9 C 74 % 1028,8 hPa 0,0 l/m 2,8 km/h (1 Bft) W 278 0 min 0 W/m -2,2 C 1,9 C 4,8 km/h (1 Bft)
27.02.2019 03:03 2,0 C 74 % 1028,8 hPa 0,0 l/m 2,2 km/h (1 Bft) W 278 0 min 0 W/m -2,1 C 2,0 C 3,2 km/h (1 Bft)
27.02.2019 03:06 2,2 C 74 % 1028,8 hPa 0,0 l/m 2,7 km/h (1 Bft) W 278 0 min 0 W/m -1,9 C 2,2 C 4,8 km/h (1 Bft)
27.02.2019 03:09 2,5 C 74 % 1028,7 hPa 0,0 l/m 3,0 km/h (1 Bft) W 278 0 min 0 W/m -1,7 C 2,5 C 4,8 km/h (1 Bft)
27.02.2019 03:12 2,7 C 73 % 1028,7 hPa 0,0 l/m 2,2 km/h (1 Bft) W 278 0 min 0 W/m -1,6 C 2,7 C 3,2 km/h (1 Bft)
27.02.2019 03:15 2,8 C 72 % 1028,6 hPa 0,0 l/m 3,0 km/h (1 Bft) W 278 0 min 0 W/m -1,7 C 2,8 C 4,8 km/h (1 Bft)
27.02.2019 03:18 2,9 C 72 % 1028,6 hPa 0,0 l/m 2,2 km/h (1 Bft) W 278 0 min 0 W/m -1,6 C 2,9 C 3,2 km/h (1 Bft)
27.02.2019 03:21 2,8 C 71 % 1028,6 hPa 0,0 l/m 1,3 km/h (1 Bft) W 278 0 min 0 W/m -1,9 C 2,8 C 1,6 km/h (1 Bft)
27.02.2019 03:24 2,6 C 72 % 1028,6 hPa 0,0 l/m 0,6 km/h (0 Bft) W 278 0 min 0 W/m -1,9 C 2,6 C 1,6 km/h (1 Bft)
27.02.2019 03:27 2,4 C 73 % 1028,5 hPa 0,0 l/m 0,3 km/h (0 Bft) W 278 0 min 0 W/m -1,9 C 2,4 C 1,6 km/h (1 Bft)
27.02.2019 03:30 2,2 C 74 % 1028,4 hPa 0,0 l/m 1,2 km/h (1 Bft) W 278 0 min 0 W/m -1,9 C 2,2 C 1,6 km/h (1 Bft)
27.02.2019 03:33 1,9 C 74 % 1028,4 hPa 0,0 l/m 1,7 km/h (1 Bft) W 278 0 min 0 W/m -2,2 C 1,9 C 3,2 km/h (1 Bft)
27.02.2019 03:36 1,8 C 75 % 1028,3 hPa 0,0 l/m 1,8 km/h (1 Bft) W 278 0 min 0 W/m -2,1 C 1,8 C 3,2 km/h (1 Bft)
27.02.2019 03:39 1,6 C 76 % 1028,3 hPa 0,0 l/m 0,9 km/h (0 Bft) W 278 0 min 0 W/m -2,2 C 1,6 C 1,6 km/h (1 Bft)
27.02.2019 03:42 1,4 C 77 % 1028,3 hPa 0,0 l/m 1,4 km/h (1 Bft) W 278 0 min 0 W/m -2,2 C 1,4 C 3,2 km/h (1 Bft)
27.02.2019 03:45 1,4 C 78 % 1028,2 hPa 0,0 l/m 1,5 km/h (1 Bft) W 278 0 min 0 W/m -2,0 C 1,4 C 3,2 km/h (1 Bft)
27.02.2019 03:48 1,5 C 79 % 1028,2 hPa 0,0 l/m 1,1 km/h (1 Bft) W 278 0 min 0 W/m -1,7 C 1,5 C 3,2 km/h (1 Bft)
27.02.2019 03:51 1,4 C 80 % 1028,1 hPa 0,0 l/m 1,4 km/h (1 Bft) W 278 0 min 0 W/m -1,7 C 1,4 C 3,2 km/h (1 Bft)
27.02.2019 03:54 1,4 C 80 % 1028,0 hPa 0,0 l/m 2,0 km/h (1 Bft) W 278 0 min 0 W/m -1,7 C 1,4 C 3,2 km/h (1 Bft)
27.02.2019 03:57 1,3 C 81 % 1028,0 hPa 0,0 l/m 2,5 km/h (1 Bft) W 278 0 min 0 W/m -1,6 C 1,3 C 4,8 km/h (1 Bft)
27.02.2019 04:00 1,3 C 81 % 1027,9 hPa 0,0 l/m 3,1 km/h (1 Bft) W 278 0 min 0 W/m -1,6 C 1,3 C 4,8 km/h (1 Bft)
27.02.2019 04:03 1,2 C 81 % 1027,9 hPa 0,0 l/m 2,7 km/h (1 Bft) W 278 0 min 0 W/m -1,7 C 1,2 C 4,8 km/h (1 Bft)
27.02.2019 04:06 1,2 C 81 % 1027,9 hPa 0,0 l/m 2,4 km/h (1 Bft) W 278 0 min 0 W/m -1,7 C 1,2 C 3,2 km/h (1 Bft)
27.02.2019 04:09 1,1 C 81 % 1027,9 hPa 0,0 l/m 2,7 km/h (1 Bft) W 278 0 min 0 W/m -1,8 C 1,1 C 4,8 km/h (1 Bft)
27.02.2019 04:12 1,1 C 82 % 1027,8 hPa 0,0 l/m 2,9 km/h (1 Bft) W 278 0 min 0 W/m -1,6 C 1,1 C 4,8 km/h (1 Bft)
27.02.2019 04:15 1,1 C 82 % 1027,8 hPa 0,0 l/m 3,5 km/h (1 Bft) W 278 0 min 0 W/m -1,6 C 1,1 C 4,8 km/h (1 Bft)
27.02.2019 04:18 1,2 C 81 % 1027,7 hPa 0,0 l/m 3,1 km/h (1 Bft) W 278 0 min 0 W/m -1,7 C 1,2 C 4,8 km/h (1 Bft)
27.02.2019 04:21 1,4 C 82 % 1027,7 hPa 0,0 l/m 3,7 km/h (1 Bft) W 278 0 min 0 W/m -1,3 C 1,4 C 6,4 km/h (2 Bft)
27.02.2019 04:24 1,6 C 81 % 1027,7 hPa 0,0 l/m 2,7 km/h (1 Bft) W 278 0 min 0 W/m -1,3 C 1,6 C 4,8 km/h (1 Bft)
27.02.2019 04:27 1,7 C 80 % 1027,7 hPa 0,0 l/m 2,0 km/h (1 Bft) W 278 0 min 0 W/m -1,4 C 1,7 C 3,2 km/h (1 Bft)
27.02.2019 04:30 1,6 C 79 % 1027,7 hPa 0,0 l/m 1,3 km/h (1 Bft) W 278 0 min 0 W/m -1,6 C 1,6 C 1,6 km/h (1 Bft)
27.02.2019 04:33 1,4 C 79 % 1027,7 hPa 0,0 l/m 1,2 km/h (1 Bft) W 278 0 min 0 W/m -1,8 C 1,4 C 3,2 km/h (1 Bft)
27.02.2019 04:36 1,2 C 79 % 1027,7 hPa 0,0 l/m 0,6 km/h (0 Bft) W 278 0 min 0 W/m -2,0 C 1,2 C 1,6 km/h (1 Bft)
27.02.2019 04:39 1,1 C 79 % 1027,7 hPa 0,0 l/m 1,1 km/h (1 Bft) W 278 0 min 0 W/m -2,1 C 1,1 C 1,6 km/h (1 Bft)
27.02.2019 04:42 1,1 C 79 % 1027,6 hPa 0,0 l/m 1,8 km/h (1 Bft) W 278 0 min 0 W/m -2,1 C 1,1 C 3,2 km/h (1 Bft)
27.02.2019 04:45 1,1 C 80 % 1027,6 hPa 0,0 l/m 2,5 km/h (1 Bft) W 278 0 min 0 W/m -2,0 C 1,1 C 3,2 km/h (1 Bft)
27.02.2019 04:48 1,1 C 80 % 1027,6 hPa 0,0 l/m 2,7 km/h (1 Bft) W 278 0 min 0 W/m -2,0 C 1,1 C 3,2 km/h (1 Bft)
27.02.2019 04:51 1,0 C 80 % 1027,6 hPa 0,0 l/m 1,9 km/h (1 Bft) W 278 0 min 0 W/m -2,1 C 1,0 C 3,2 km/h (1 Bft)
27.02.2019 04:54 1,0 C 80 % 1027,6 hPa 0,0 l/m 0,9 km/h (0 Bft) W 278 0 min 0 W/m -2,1 C 1,0 C 1,6 km/h (1 Bft)
27.02.2019 04:57 0,9 C 80 % 1027,6 hPa 0,0 l/m 1,4 km/h (1 Bft) W 278 0 min 0 W/m -2,2 C 0,9 C 3,2 km/h (1 Bft)
27.02.2019 05:00 0,8 C 80 % 1027,5 hPa 0,0 l/m 2,0 km/h (1 Bft) W 278 0 min 0 W/m -2,2 C 0,8 C 3,2 km/h (1 Bft)
27.02.2019 05:03 0,7 C 80 % 1027,5 hPa 0,0 l/m 2,6 km/h (1 Bft) W 278 0 min 0 W/m -2,3 C 0,7 C 4,8 km/h (1 Bft)
27.02.2019 05:06 0,6 C 80 % 1027,5 hPa 0,0 l/m 3,2 km/h (1 Bft) W 278 0 min 0 W/m -2,4 C 0,6 C 4,8 km/h (1 Bft)
27.02.2019 05:09 0,3 C 80 % 1027,5 hPa 0,0 l/m 2,6 km/h (1 Bft) W 278 0 min 0 W/m -2,7 C 0,3 C 4,8 km/h (1 Bft)
27.02.2019 05:12 0,2 C 81 % 1027,4 hPa 0,0 l/m 3,2 km/h (1 Bft) W 278 0 min 0 W/m -2,7 C 0,2 C 4,8 km/h (1 Bft)
27.02.2019 05:15 0,1 C 81 % 1027,4 hPa 0,0 l/m 3,1 km/h (1 Bft) W 278 0 min 0 W/m -2,8 C 0,1 C 4,8 km/h (1 Bft)
27.02.2019 05:18 0,0 C 82 % 1027,4 hPa 0,0 l/m 3,4 km/h (1 Bft) W 278 0 min 0 W/m -2,7 C 0,0 C 4,8 km/h (1 Bft)
27.02.2019 05:21 -0,1 C 82 % 1027,4 hPa 0,0 l/m 3,3 km/h (1 Bft) W 278 0 min 0 W/m -2,8 C -0,1 C 4,8 km/h (1 Bft)
27.02.2019 05:24 -0,1 C 83 % 1027,4 hPa 0,0 l/m 3,3 km/h (1 Bft) W 278 0 min 0 W/m -2,6 C -0,1 C 4,8 km/h (1 Bft)
27.02.2019 05:27 -0,1 C 83 % 1027,3 hPa 0,0 l/m 2,7 km/h (1 Bft) W 278 0 min 0 W/m -2,6 C -0,1 C 4,8 km/h (1 Bft)
27.02.2019 05:30 -0,1 C 83 % 1027,3 hPa 0,0 l/m 2,2 km/h (1 Bft) W 278 0 min 0 W/m -2,6 C -0,1 C 3,2 km/h (1 Bft)
27.02.2019 05:33 0,1 C 83 % 1027,3 hPa 0,0 l/m 1,9 km/h (1 Bft) W 278 0 min 0 W/m -2,4 C 0,1 C 3,2 km/h (1 Bft)
27.02.2019 05:36 0,1 C 83 % 1027,3 hPa 0,0 l/m 1,9 km/h (1 Bft) W 278 0 min 0 W/m -2,4 C 0,1 C 3,2 km/h (1 Bft)
27.02.2019 05:39 0,2 C 84 % 1027,3 hPa 0,0 l/m 2,1 km/h (1 Bft) W 278 0 min 0 W/m -2,2 C 0,2 C 3,2 km/h (1 Bft)
27.02.2019 05:42 0,3 C 83 % 1027,2 hPa 0,0 l/m 2,5 km/h (1 Bft) W 278 0 min 0 W/m -2,2 C 0,3 C 3,2 km/h (1 Bft)
27.02.2019 05:45 0,2 C 83 % 1027,3 hPa 0,0 l/m 3,0 km/h (1 Bft) W 278 0 min 0 W/m -2,3 C 0,2 C 4,8 km/h (1 Bft)
27.02.2019 05:48 0,2 C 83 % 1027,3 hPa 0,0 l/m 3,1 km/h (1 Bft) W 278 0 min 0 W/m -2,3 C 0,2 C 4,8 km/h (1 Bft)
27.02.2019 05:51 0,2 C 83 % 1027,3 hPa 0,0 l/m 2,0 km/h (1 Bft) W 278 0 min 0 W/m -2,3 C 0,2 C 3,2 km/h (1 Bft)
27.02.2019 05:54 0,3 C 83 % 1027,4 hPa 0,0 l/m 2,3 km/h (1 Bft) W 278 0 min 0 W/m -2,2 C 0,3 C 3,2 km/h (1 Bft)
27.02.2019 05:57 0,4 C 84 % 1027,3 hPa 0,0 l/m 2,5 km/h (1 Bft) W 278 0 min 0 W/m -2,0 C 0,4 C 3,2 km/h (1 Bft)
27.02.2019 06:00 0,7 C 84 % 1027,3 hPa 0,0 l/m 2,7 km/h (1 Bft) W 278 0 min 0 W/m -1,7 C 0,7 C 3,2 km/h (1 Bft)
27.02.2019 06:03 0,9 C 84 % 1027,3 hPa 0,0 l/m 2,9 km/h (1 Bft) W 278 0 min 0 W/m -1,5 C 0,9 C 4,8 km/h (1 Bft)
27.02.2019 06:06 1,1 C 83 % 1027,2 hPa 0,0 l/m 3,8 km/h (1 Bft) W 278 0 min 0 W/m -1,5 C 1,1 C 4,8 km/h (1 Bft)
27.02.2019 06:09 1,3 C 82 % 1027,2 hPa 0,0 l/m 3,3 km/h (1 Bft) W 278 0 min 0 W/m -1,4 C 1,3 C 4,8 km/h (1 Bft)
27.02.2019 06:12 1,3 C 82 % 1027,2 hPa 0,0 l/m 4,0 km/h (1 Bft) W 278 0 min 0 W/m -1,4 C 1,3 C 4,8 km/h (1 Bft)
27.02.2019 06:15 1,5 C 81 % 1027,2 hPa 0,0 l/m 4,9 km/h (1 Bft) W 278 0 min 0 W/m -1,4 C 1,5 C 6,4 km/h (2 Bft)
27.02.2019 06:18 1,5 C 80 % 1027,2 hPa 0,0 l/m 5,4 km/h (2 Bft) W 278 0 min 0 W/m -1,6 C 1,5 C 6,4 km/h (2 Bft)
27.02.2019 06:21 1,5 C 80 % 1027,2 hPa 0,0 l/m 5,2 km/h (1 Bft) W 278 0 min 0 W/m -1,6 C 1,5 C 6,4 km/h (2 Bft)
27.02.2019 06:24 1,6 C 79 % 1027,1 hPa 0,0 l/m 4,5 km/h (1 Bft) W 278 0 min 0 W/m -1,6 C 1,6 C 6,4 km/h (2 Bft)
27.02.2019 06:27 1,7 C 79 % 1027,1 hPa 0,0 l/m 3,9 km/h (1 Bft) W 278 0 min 0 W/m -1,5 C 1,7 C 4,8 km/h (1 Bft)
27.02.2019 06:30 1,7 C 79 % 1027,1 hPa 0,0 l/m 3,7 km/h (1 Bft) W 278 0 min 0 W/m -1,5 C 1,7 C 4,8 km/h (1 Bft)
27.02.2019 06:33 1,7 C 78 % 1027,0 hPa 0,0 l/m 3,1 km/h (1 Bft) W 278 0 min 0 W/m -1,7 C 1,7 C 4,8 km/h (1 Bft)
27.02.2019 06:36 1,6 C 78 % 1027,0 hPa 0,0 l/m 5,1 km/h (1 Bft) W 278 0 min 0 W/m -1,8 C 1,6 C 6,4 km/h (2 Bft)
27.02.2019 06:39 1,6 C 78 % 1027,1 hPa 0,0 l/m 4,6 km/h (1 Bft) W 278 0 min 0 W/m -1,8 C 1,6 C 6,4 km/h (2 Bft)
27.02.2019 06:42 1,6 C 78 % 1027,0 hPa 0,0 l/m 4,6 km/h (1 Bft) W 278 0 min 0 W/m -1,8 C 1,6 C 6,4 km/h (2 Bft)
27.02.2019 06:45 1,6 C 78 % 1027,0 hPa 0,0 l/m 4,2 km/h (1 Bft) W 278 0 min 0 W/m -1,8 C 1,6 C 4,8 km/h (1 Bft)
27.02.2019 06:48 1,6 C 78 % 1026,9 hPa 0,0 l/m 3,7 km/h (1 Bft) W 278 0 min 0 W/m -1,8 C 1,6 C 4,8 km/h (1 Bft)
27.02.2019 06:51 1,7 C 78 % 1026,9 hPa 0,0 l/m 3,4 km/h (1 Bft) W 278 0 min 0 W/m -1,7 C 1,7 C 4,8 km/h (1 Bft)
27.02.2019 06:54 1,8 C 78 % 1026,9 hPa 0,0 l/m 3,5 km/h (1 Bft) W 278 0 min 0 W/m -1,6 C 1,8 C 4,8 km/h (1 Bft)
27.02.2019 06:57 1,8 C 77 % 1026,9 hPa 0,0 l/m 2,8 km/h (1 Bft) W 278 0 min 0 W/m -1,8 C 1,8 C 3,2 km/h (1 Bft)
27.02.2019 07:00 1,8 C 77 % 1026,9 hPa 0,0 l/m 2,7 km/h (1 Bft) W 278 0 min 0 W/m -1,8 C 1,8 C 4,8 km/h (1 Bft)
27.02.2019 07:03 1,9 C 77 % 1026,9 hPa 0,0 l/m 2,4 km/h (1 Bft) W 278 0 min 0 W/m -1,7 C 1,9 C 3,2 km/h (1 Bft)
27.02.2019 07:06 1,9 C 77 % 1026,8 hPa 0,0 l/m 2,7 km/h (1 Bft) W 278 0 min 0 W/m -1,7 C 1,9 C 3,2 km/h (1 Bft)
27.02.2019 07:09 1,8 C 77 % 1026,8 hPa 0,0 l/m 2,3 km/h (1 Bft) W 278 0 min 0 W/m -1,8 C 1,8 C 3,2 km/h (1 Bft)
27.02.2019 07:12 1,6 C 77 % 1026,8 hPa 0,0 l/m 2,1 km/h (1 Bft) W 278 0 min 0 W/m -2,0 C 1,6 C 3,2 km/h (1 Bft)
27.02.2019 07:15 1,5 C 78 % 1026,8 hPa 0,0 l/m 1,8 km/h (1 Bft) W 278 0 min 0 W/m -1,9 C 1,5 C 3,2 km/h (1 Bft)
27.02.2019 07:18 1,4 C 78 % 1026,8 hPa 0,0 l/m 1,8 km/h (1 Bft) W 278 0 min 0 W/m -2,0 C 1,4 C 3,2 km/h (1 Bft)
27.02.2019 07:21 1,3 C 79 % 1026,8 hPa 0,0 l/m 2,3 km/h (1 Bft) W 278 0 min 0 W/m -1,9 C 1,3 C 3,2 km/h (1 Bft)
27.02.2019 07:24 1,2 C 79 % 1026,8 hPa 0,0 l/m 3,2 km/h (1 Bft) W 278 0 min 5 W/m -2,0 C 1,2 C 4,8 km/h (1 Bft)
27.02.2019 07:27 1,1 C 79 % 1026,8 hPa 0,0 l/m 2,9 km/h (1 Bft) W 278 0 min 5 W/m -2,1 C 1,1 C 4,8 km/h (1 Bft)
27.02.2019 07:30 0,9 C 80 % 1026,7 hPa 0,0 l/m 2,5 km/h (1 Bft) W 278 0 min 7 W/m -2,2 C 0,9 C 3,2 km/h (1 Bft)
27.02.2019 07:33 0,9 C 80 % 1026,7 hPa 0,0 l/m 2,0 km/h (1 Bft) W 278 0 min 7 W/m -2,2 C 0,9 C 3,2 km/h (1 Bft)
27.02.2019 07:36 0,9 C 81 % 1026,7 hPa 0,0 l/m 2,7 km/h (1 Bft) W 278 0 min 7 W/m -2,0 C 0,9 C 4,8 km/h (1 Bft)
27.02.2019 07:39 0,8 C 81 % 1026,6 hPa 0,0 l/m 3,2 km/h (1 Bft) W 278 0 min 9 W/m -2,1 C 0,8 C 4,8 km/h (1 Bft)
27.02.2019 07:42 0,8 C 81 % 1026,7 hPa 0,0 l/m 3,0 km/h (1 Bft) W 278 0 min 9 W/m -2,1 C 0,8 C 3,2 km/h (1 Bft)
27.02.2019 07:45 0,7 C 82 % 1026,6 hPa 0,0 l/m 3,7 km/h (1 Bft) W 278 0 min 11 W/m -2,0 C 0,7 C 4,8 km/h (1 Bft)
27.02.2019 07:48 0,7 C 82 % 1026,6 hPa 0,0 l/m 3,7 km/h (1 Bft) W 278 0 min 11 W/m -2,0 C 0,7 C 4,8 km/h (1 Bft)
27.02.2019 07:51 0,7 C 82 % 1026,5 hPa 0,0 l/m 3,8 km/h (1 Bft) W 278 0 min 11 W/m -2,0 C 0,7 C 4,8 km/h (1 Bft)
27.02.2019 07:54 0,8 C 83 % 1026,5 hPa 0,0 l/m 2,8 km/h (1 Bft) W 278 0 min 12 W/m -1,8 C 0,8 C 4,8 km/h (1 Bft)
27.02.2019 07:57 1,1 C 83 % 1026,4 hPa 0,0 l/m 3,1 km/h (1 Bft) W 278 0 min 12 W/m -1,5 C 1,1 C 4,8 km/h (1 Bft)
27.02.2019 08:00 1,3 C 83 % 1026,4 hPa 0,0 l/m 3,1 km/h (1 Bft) W 278 0 min 12 W/m -1,3 C 1,3 C 4,8 km/h (1 Bft)
27.02.2019 08:03 1,6 C 82 % 1026,4 hPa 0,0 l/m 3,0 km/h (1 Bft) W 278 0 min 14 W/m -1,1 C 1,6 C 4,8 km/h (1 Bft)
27.02.2019 08:06 1,9 C 82 % 1026,4 hPa 0,0 l/m 3,0 km/h (1 Bft) W 278 0 min 14 W/m -0,8 C 1,9 C 4,8 km/h (1 Bft)
27.02.2019 08:09 2,3 C 81 % 1026,4 hPa 0,0 l/m 3,4 km/h (1 Bft) W 278 0 min 16 W/m -0,6 C 2,3 C 4,8 km/h (1 Bft)
27.02.2019 08:12 2,5 C 80 % 1026,4 hPa 0,0 l/m 3,0 km/h (1 Bft) W 278 0 min 21 W/m -0,6 C 2,5 C 3,2 km/h (1 Bft)
27.02.2019 08:15 2,7 C 79 % 1026,4 hPa 0,0 l/m 3,2 km/h (1 Bft) W 278 0 min 21 W/m -0,6 C 2,7 C 4,8 km/h (1 Bft)
27.02.2019 08:18 2,7 C 78 % 1026,3 hPa 0,0 l/m 3,1 km/h (1 Bft) W 278 0 min 19 W/m -0,7 C 2,7 C 4,8 km/h (1 Bft)
27.02.2019 08:21 2,7 C 78 % 1026,3 hPa 0,0 l/m 3,3 km/h (1 Bft) W 278 0 min 18 W/m -0,7 C 2,7 C 4,8 km/h (1 Bft)
27.02.2019 08:24 2,7 C 78 % 1026,3 hPa 0,0 l/m 3,0 km/h (1 Bft) W 278 0 min 18 W/m -0,7 C 2,7 C 4,8 km/h (1 Bft)
27.02.2019 08:27 2,8 C 79 % 1026,4 hPa 0,0 l/m 2,8 km/h (1 Bft) W 278 0 min 21 W/m -0,5 C 2,8 C 4,8 km/h (1 Bft)
27.02.2019 08:30 3,0 C 79 % 1026,3 hPa 0,0 l/m 2,9 km/h (1 Bft) W 278 0 min 21 W/m -0,3 C 3,0 C 4,8 km/h (1 Bft)
27.02.2019 08:33 3,3 C 79 % 1026,3 hPa 0,0 l/m 3,0 km/h (1 Bft) W 278 0 min 19 W/m 0,0 C 3,3 C 4,8 km/h (1 Bft)
27.02.2019 08:36 3,5 C 78 % 1026,3 hPa 0,0 l/m 2,3 km/h (1 Bft) W 278 0 min 19 W/m 0,0 C 3,5 C 4,8 km/h (1 Bft)
27.02.2019 08:39 3,7 C 78 % 1026,2 hPa 0,0 l/m 2,8 km/h (1 Bft) W 278 0 min 19 W/m 0,2 C 3,7 C 4,8 km/h (1 Bft)
27.02.2019 08:42 3,8 C 77 % 1026,3 hPa 0,0 l/m 3,2 km/h (1 Bft) W 278 0 min 19 W/m 0,1 C 3,8 C 4,8 km/h (1 Bft)
27.02.2019 08:45 3,9 C 78 % 1026,3 hPa 0,0 l/m 3,3 km/h (1 Bft) W 278 0 min 19 W/m 0,4 C 3,9 C 4,8 km/h (1 Bft)
27.02.2019 08:48 4,0 C 79 % 1026,2 hPa 0,0 l/m 4,6 km/h (1 Bft) W 278 0 min 21 W/m 0,7 C 4,0 C 6,4 km/h (2 Bft)
27.02.2019 08:51 4,1 C 80 % 1026,2 hPa 0,0 l/m 4,1 km/h (1 Bft) W 278 0 min 21 W/m 1,0 C 4,1 C 4,8 km/h (1 Bft)
27.02.2019 08:54 4,2 C 80 % 1026,1 hPa 0,0 l/m 3,7 km/h (1 Bft) W 278 0 min 21 W/m 1,1 C 4,2 C 4,8 km/h (1 Bft)
27.02.2019 08:57 4,3 C 80 % 1026,2 hPa 0,0 l/m 3,7 km/h (1 Bft) W 278 0 min 21 W/m 1,2 C 4,3 C 4,8 km/h (1 Bft)
27.02.2019 09:00 4,4 C 80 % 1026,1 hPa 0,0 l/m 3,9 km/h (1 Bft) W 278 0 min 21 W/m 1,3 C 4,4 C 4,8 km/h (1 Bft)
27.02.2019 09:03 4,4 C 80 % 1026,2 hPa 0,0 l/m 3,4 km/h (1 Bft) W 278 0 min 23 W/m 1,3 C 4,4 C 4,8 km/h (1 Bft)
27.02.2019 09:06 4,6 C 80 % 1026,2 hPa 0,0 l/m 2,5 km/h (1 Bft) W 278 0 min 23 W/m 1,5 C 4,6 C 3,2 km/h (1 Bft)
27.02.2019 09:09 4,8 C 79 % 1026,1 hPa 0,0 l/m 2,9 km/h (1 Bft) W 278 0 min 23 W/m 1,5 C 4,8 C 4,8 km/h (1 Bft)
27.02.2019 09:12 5,1 C 78 % 1026,2 hPa 0,0 l/m 3,2 km/h (1 Bft) W 278 0 min 23 W/m 1,6 C 5,1 C 4,8 km/h (1 Bft)
27.02.2019 09:15 5,3 C 78 % 1026,2 hPa 0,0 l/m 2,3 km/h (1 Bft) W 278 0 min 25 W/m 1,8 C 5,3 C 3,2 km/h (1 Bft)
27.02.2019 09:18 5,6 C 77 % 1026,2 hPa 0,0 l/m 3,4 km/h (1 Bft) W 278 0 min 26 W/m 1,9 C 5,6 C 4,8 km/h (1 Bft)
27.02.2019 09:21 5,9 C 77 % 1026,1 hPa 0,0 l/m 3,1 km/h (1 Bft) W 278 3 min 148 W/m 2,2 C 5,9 C 4,8 km/h (1 Bft)
27.02.2019 09:24 6,2 C 77 % 1026,1 hPa 0,0 l/m 3,5 km/h (1 Bft) W 278 3 min 174 W/m 2,5 C 6,2 C 4,8 km/h (1 Bft)
27.02.2019 09:27 6,6 C 76 % 1026,1 hPa 0,0 l/m 3,7 km/h (1 Bft) W 278 3 min 190 W/m 2,7 C 6,6 C 6,4 km/h (2 Bft)
27.02.2019 09:30 7,1 C 74 % 1026,1 hPa 0,0 l/m 4,0 km/h (1 Bft) W 278 3 min 188 W/m 2,8 C 7,1 C 4,8 km/h (1 Bft)
27.02.2019 09:33 7,4 C 72 % 1026,1 hPa 0,0 l/m 4,2 km/h (1 Bft) W 278 3 min 200 W/m 2,7 C 7,4 C 6,4 km/h (2 Bft)
27.02.2019 09:36 7,7 C 70 % 1026,0 hPa 0,0 l/m 5,0 km/h (1 Bft) W 277 3 min 225 W/m 2,6 C 7,7 C 6,4 km/h (2 Bft)
27.02.2019 09:39 7,9 C 70 % 1026,0 hPa 0,0 l/m 4,7 km/h (1 Bft) W 277 3 min 230 W/m 2,8 C 7,9 C 6,4 km/h (2 Bft)
27.02.2019 09:42 8,1 C 69 % 1026,0 hPa 0,0 l/m 4,4 km/h (1 Bft) W 277 0 min 32 W/m 2,8 C 8,1 C 6,4 km/h (2 Bft)
27.02.2019 09:45 8,2 C 67 % 1026,0 hPa 0,0 l/m 4,1 km/h (1 Bft) W 277 0 min 32 W/m 2,4 C 8,2 C 6,4 km/h (2 Bft)
27.02.2019 09:48 8,3 C 65 % 1026,0 hPa 0,0 l/m 4,6 km/h (1 Bft) W 277 0 min 32 W/m 2,1 C 8,3 C 6,4 km/h (2 Bft)
27.02.2019 09:51 8,4 C 65 % 1026,0 hPa 0,0 l/m 4,1 km/h (1 Bft) W 277 0 min 33 W/m 2,2 C 8,4 C 6,4 km/h (2 Bft)
27.02.2019 09:54 8,6 C 63 % 1025,9 hPa 0,0 l/m 4,5 km/h (1 Bft) W 277 0 min 40 W/m 2,0 C 8,6 C 6,4 km/h (2 Bft)
27.02.2019 09:57 8,7 C 63 % 1025,9 hPa 0,0 l/m 3,9 km/h (1 Bft) W 277 0 min 160 W/m 2,1 C 8,7 C 4,8 km/h (1 Bft)
27.02.2019 10:00 8,9 C 61 % 1025,9 hPa 0,0 l/m 4,0 km/h (1 Bft) W 277 3 min 274 W/m 1,8 C 8,9 C 6,4 km/h (2 Bft)
27.02.2019 10:03 9,1 C 61 % 1025,9 hPa 0,0 l/m 4,0 km/h (1 Bft) W 276 3 min 302 W/m 2,0 C 9,1 C 9,7 km/h (2 Bft)
27.02.2019 10:06 9,2 C 60 % 1025,8 hPa 0,0 l/m 4,1 km/h (1 Bft) W 276 3 min 308 W/m 1,8 C 9,2 C 9,7 km/h (2 Bft)
27.02.2019 10:09 9,4 C 59 % 1025,7 hPa 0,0 l/m 3,9 km/h (1 Bft) W 276 3 min 313 W/m 1,8 C 9,4 C 4,8 km/h (1 Bft)
27.02.2019 10:12 9,7 C 58 % 1025,7 hPa 0,0 l/m 3,1 km/h (1 Bft) W 276 3 min 318 W/m 1,8 C 9,7 C 6,4 km/h (2 Bft)
27.02.2019 10:15 9,9 C 55 % 1025,6 hPa 0,0 l/m 5,2 km/h (1 Bft) W 275 3 min 323 W/m 1,3 C 9,9 C 9,7 km/h (2 Bft)
27.02.2019 10:18 10,2 C 55 % 1025,5 hPa 0,0 l/m 4,1 km/h (1 Bft) W 273 3 min 329 W/m 1,6 C 10,2 C 6,4 km/h (2 Bft)
27.02.2019 10:21 10,4 C 55 % 1025,5 hPa 0,0 l/m 4,5 km/h (1 Bft) W 273 3 min 332 W/m 1,8 C 10,4 C 6,4 km/h (2 Bft)
27.02.2019 10:24 10,6 C 53 % 1025,5 hPa 0,0 l/m 4,6 km/h (1 Bft) W 273 3 min 339 W/m 1,4 C 10,6 C 6,4 km/h (2 Bft)
27.02.2019 10:27 10,8 C 52 % 1025,5 hPa 0,0 l/m 5,5 km/h (2 Bft) W 273 3 min 345 W/m 1,3 C 10,8 C 9,7 km/h (2 Bft)
27.02.2019 10:30 11,0 C 50 % 1025,5 hPa 0,0 l/m 6,6 km/h (2 Bft) W 273 3 min 348 W/m 1,0 C 10,9 C 9,7 km/h (2 Bft)
27.02.2019 10:33 11,2 C 52 % 1025,4 hPa 0,0 l/m 4,8 km/h (1 Bft) W 273 3 min 353 W/m 1,7 C 11,2 C 9,7 km/h (2 Bft)
27.02.2019 10:36 11,3 C 51 % 1025,4 hPa 0,0 l/m 6,2 km/h (2 Bft) W 261 3 min 357 W/m 1,5 C 11,3 C 9,7 km/h (2 Bft)
27.02.2019 10:39 11,6 C 49 % 1025,3 hPa 0,0 l/m 8,4 km/h (2 Bft) S-SW 209 3 min 359 W/m 1,3 C 10,3 C 14,5 km/h (3 Bft)
27.02.2019 10:42 11,8 C 45 % 1025,2 hPa 0,0 l/m 8,2 km/h (2 Bft) SW 231 3 min 357 W/m 0,3 C 10,6 C 11,3 km/h (2 Bft)
27.02.2019 10:45 11,9 C 45 % 1025,2 hPa 0,0 l/m 9,1 km/h (2 Bft) SW 223 3 min 355 W/m 0,4 C 10,2 C 16,1 km/h (3 Bft)
27.02.2019 10:48 11,9 C 44 % 1025,1 hPa 0,0 l/m 8,5 km/h (2 Bft) SW 217 3 min 355 W/m 0,0 C 10,5 C 12,9 km/h (3 Bft)
27.02.2019 10:51 12,0 C 45 % 1025,1 hPa 0,0 l/m 7,8 km/h (2 Bft) SW 217 3 min 352 W/m 0,4 C 11,1 C 11,3 km/h (2 Bft)
27.02.2019 10:54 12,1 C 44 % 1025,1 hPa 0,0 l/m 6,9 km/h (2 Bft) SW 217 3 min 348 W/m 0,2 C 11,8 C 9,7 km/h (2 Bft)
27.02.2019 10:57 12,3 C 44 % 1025,0 hPa 0,0 l/m 6,7 km/h (2 Bft) SW 216 3 min 345 W/m 0,4 C 12,1 C 11,3 km/h (2 Bft)
27.02.2019 11:00 12,4 C 43 % 1025,0 hPa 0,0 l/m 8,3 km/h (2 Bft) W-SW 257 3 min 339 W/m 0,2 C 11,2 C 14,5 km/h (3 Bft)
27.02.2019 11:03 12,6 C 44 % 1024,9 hPa 0,0 l/m 9,7 km/h (2 Bft) W-SW 241 3 min 334 W/m 0,7 C 10,6 C 16,1 km/h (3 Bft)
27.02.2019 11:06 12,7 C 42 % 1024,8 hPa 0,0 l/m 9,1 km/h (2 Bft) SW 229 3 min 330 W/m 0,1 C 11,1 C 14,5 km/h (3 Bft)
27.02.2019 11:09 12,7 C 43 % 1024,8 hPa 0,0 l/m 8,1 km/h (2 Bft) SW 230 3 min 327 W/m 0,5 C 11,6 C 11,3 km/h (2 Bft)
27.02.2019 11:12 12,9 C 45 % 1024,8 hPa 0,0 l/m 6,0 km/h (2 Bft) SW 230 3 min 325 W/m 1,3 C 12,9 C 8,0 km/h (2 Bft)
27.02.2019 11:15 13,1 C 43 % 1024,7 hPa 0,0 l/m 8,6 km/h (2 Bft) W-SW 238 3 min 322 W/m 0,8 C 11,8 C 12,9 km/h (3 Bft)
27.02.2019 11:18 13,1 C 44 % 1024,7 hPa 0,0 l/m 7,5 km/h (2 Bft) W-SW 237 3 min 325 W/m 1,1 C 12,4 C 12,9 km/h (3 Bft)
27.02.2019 11:21 13,1 C 42 % 1024,6 hPa 0,0 l/m 10,0 km/h (2 Bft) W-SW 239 3 min 327 W/m 0,5 C 11,0 C 14,5 km/h (3 Bft)
27.02.2019 11:24 13,1 C 41 % 1024,6 hPa 0,0 l/m 8,9 km/h (2 Bft) SW 230 3 min 330 W/m 0,2 C 11,6 C 12,9 km/h (3 Bft)
27.02.2019 11:27 13,2 C 43 % 1024,6 hPa 0,0 l/m 8,7 km/h (2 Bft) SW 230 3 min 336 W/m 0,9 C 11,8 C 12,9 km/h (3 Bft)
27.02.2019 11:30 13,4 C 41 % 1024,6 hPa 0,0 l/m 9,1 km/h (2 Bft) SW 217 3 min 343 W/m 0,4 C 11,8 C 16,1 km/h (3 Bft)
27.02.2019 11:33 13,5 C 41 % 1024,6 hPa 0,0 l/m 9,6 km/h (2 Bft) SW 235 3 min 350 W/m 0,5 C 11,7 C 14,5 km/h (3 Bft)
27.02.2019 11:36 13,5 C 40 % 1024,6 hPa 0,0 l/m 10,7 km/h (2 Bft) S-SW 213 3 min 360 W/m 0,2 C 11,1 C 16,1 km/h (3 Bft)
27.02.2019 11:39 13,5 C 40 % 1024,6 hPa 0,0 l/m 10,4 km/h (2 Bft) SW 221 3 min 369 W/m 0,2 C 11,3 C 16,1 km/h (3 Bft)
27.02.2019 11:42 13,6 C 40 % 1024,5 hPa 0,0 l/m 10,7 km/h (2 Bft) SW 221 3 min 383 W/m 0,3 C 11,2 C 14,5 km/h (3 Bft)
27.02.2019 11:45 13,6 C 40 % 1024,6 hPa 0,0 l/m 11,2 km/h (2 Bft) W-SW 244 3 min 394 W/m 0,3 C 11,0 C 17,7 km/h (3 Bft)
27.02.2019 11:48 13,7 C 39 % 1024,4 hPa 0,0 l/m 10,7 km/h (2 Bft) W-SW 238 3 min 404 W/m 0,0 C 11,3 C 17,7 km/h (3 Bft)
27.02.2019 11:51 13,7 C 40 % 1024,4 hPa 0,0 l/m 11,2 km/h (2 Bft) W-SW 242 3 min 411 W/m 0,4 C 11,1 C 16,1 km/h (3 Bft)
27.02.2019 11:54 13,8 C 40 % 1024,4 hPa 0,0 l/m 12,1 km/h (2 Bft) SW 228 3 min 424 W/m 0,4 C 10,8 C 19,3 km/h (3 Bft)
27.02.2019 11:57 13,8 C 41 % 1024,4 hPa 0,0 l/m 11,3 km/h (2 Bft) SW 231 3 min 429 W/m 0,8 C 11,2 C 17,7 km/h (3 Bft)
27.02.2019 12:00 13,9 C 40 % 1024,3 hPa 0,0 l/m 13,6 km/h (3 Bft) SW 219 3 min 438 W/m 0,5 C 10,4 C 20,9 km/h (4 Bft)
27.02.2019 12:03 13,9 C 40 % 1024,3 hPa 0,0 l/m 11,7 km/h (2 Bft) SW 227 3 min 443 W/m 0,5 C 11,1 C 16,1 km/h (3 Bft)
27.02.2019 12:06 13,9 C 40 % 1024,3 hPa 0,0 l/m 12,4 km/h (2 Bft) W-SW 242 3 min 446 W/m 0,5 C 10,8 C 17,7 km/h (3 Bft)
27.02.2019 12:09 13,9 C 40 % 1024,2 hPa 0,0 l/m 11,5 km/h (2 Bft) SW 221 3 min 450 W/m 0,5 C 11,2 C 16,1 km/h (3 Bft)
27.02.2019 12:12 14,0 C 41 % 1024,2 hPa 0,0 l/m 12,0 km/h (2 Bft) S-SW 211 3 min 450 W/m 1,0 C 11,1 C 17,7 km/h (3 Bft)
27.02.2019 12:15 14,1 C 41 % 1024,1 hPa 0,0 l/m 10,9 km/h (2 Bft) SW 219 3 min 452 W/m 1,1 C 11,7 C 17,7 km/h (3 Bft)
27.02.2019 12:18 14,2 C 39 % 1024,0 hPa 0,0 l/m 10,5 km/h (2 Bft) SW 224 3 min 454 W/m 0,5 C 12,0 C 14,5 km/h (3 Bft)
27.02.2019 12:21 14,3 C 39 % 1024,0 hPa 0,0 l/m 11,2 km/h (2 Bft) W-SW 238 3 min 452 W/m 0,5 C 11,8 C 16,1 km/h (3 Bft)
27.02.2019 12:24 14,3 C 38 % 1023,9 hPa 0,0 l/m 12,7 km/h (3 Bft) SW 227 3 min 454 W/m 0,2 C 11,2 C 19,3 km/h (3 Bft)
27.02.2019 12:27 14,4 C 39 % 1023,9 hPa 0,0 l/m 12,0 km/h (2 Bft) SW 220 3 min 455 W/m 0,6 C 11,6 C 17,7 km/h (3 Bft)
27.02.2019 12:30 14,5 C 39 % 1023,9 hPa 0,0 l/m 11,1 km/h (2 Bft) SW 216 3 min 455 W/m 0,7 C 12,1 C 16,1 km/h (3 Bft)
27.02.2019 12:33 14,6 C 39 % 1023,8 hPa 0,0 l/m 10,2 km/h (2 Bft) SW 223 3 min 455 W/m 0,8 C 12,6 C 17,7 km/h (3 Bft)
27.02.2019 12:36 14,7 C 38 % 1023,7 hPa 0,0 l/m 11,4 km/h (2 Bft) SW 221 3 min 457 W/m 0,5 C 12,2 C 16,1 km/h (3 Bft)
27.02.2019 12:39 14,7 C 36 % 1023,7 hPa 0,0 l/m 12,9 km/h (3 Bft) SW 216 3 min 457 W/m -0,2 C 11,6 C 17,7 km/h (3 Bft)
27.02.2019 12:42 14,7 C 37 % 1023,6 hPa 0,0 l/m 10,8 km/h (2 Bft) W-SW 244 3 min 457 W/m 0,2 C 12,4 C 16,1 km/h (3 Bft)
27.02.2019 12:45 14,9 C 39 % 1023,5 hPa 0,0 l/m 10,4 km/h (2 Bft) SW 225 3 min 461 W/m 1,1 C 12,8 C 16,1 km/h (3 Bft)
27.02.2019 12:48 15,1 C 39 % 1023,5 hPa 0,0 l/m 9,4 km/h (2 Bft) SW 221 3 min 461 W/m 1,3 C 13,5 C 14,5 km/h (3 Bft)
27.02.2019 12:51 15,2 C 40 % 1023,6 hPa 0,0 l/m 8,9 km/h (2 Bft) S-SW 212 3 min 459 W/m 1,7 C 13,9 C 12,9 km/h (3 Bft)
27.02.2019 12:54 15,3 C 41 % 1023,6 hPa 0,0 l/m 9,0 km/h (2 Bft) SW 221 3 min 455 W/m 2,1 C 13,9 C 14,5 km/h (3 Bft)
27.02.2019 12:57 15,3 C 38 % 1023,6 hPa 0,0 l/m 9,9 km/h (2 Bft) W-SW 243 3 min 455 W/m 1,1 C 13,5 C 16,1 km/h (3 Bft)
27.02.2019 13:00 15,3 C 39 % 1023,5 hPa 0,0 l/m 10,2 km/h (2 Bft) SW 220 3 min 454 W/m 1,4 C 13,4 C 14,5 km/h (3 Bft)
27.02.2019 13:03 15,4 C 41 % 1023,5 hPa 0,0 l/m 8,7 km/h (2 Bft) SW 229 3 min 450 W/m 2,2 C 14,2 C 16,1 km/h (3 Bft)
27.02.2019 13:06 15,4 C 39 % 1023,4 hPa 0,0 l/m 12,5 km/h (2 Bft) SW 225 3 min 450 W/m 1,5 C 12,5 C 17,7 km/h (3 Bft)
27.02.2019 13:09 15,4 C 39 % 1023,4 hPa 0,0 l/m 10,2 km/h (2 Bft) SW 220 3 min 450 W/m 1,5 C 13,5 C 14,5 km/h (3 Bft)
27.02.2019 13:12 15,4 C 38 % 1023,3 hPa 0,0 l/m 9,2 km/h (2 Bft) S-SW 205 3 min 445 W/m 1,2 C 13,9 C 14,5 km/h (3 Bft)
27.02.2019 13:15 15,4 C 39 % 1023,2 hPa 0,0 l/m 8,2 km/h (2 Bft) S-SW 200 3 min 441 W/m 1,5 C 14,4 C 12,9 km/h (3 Bft)
27.02.2019 13:18 15,6 C 39 % 1023,2 hPa 0,0 l/m 10,4 km/h (2 Bft) SW 235 3 min 443 W/m 1,7 C 13,6 C 16,1 km/h (3 Bft)
27.02.2019 13:21 15,6 C 37 % 1023,1 hPa 0,0 l/m 11,0 km/h (2 Bft) S-SW 213 3 min 445 W/m 1,0 C 13,4 C 14,5 km/h (3 Bft)
27.02.2019 13:24 15,6 C 37 % 1023,1 hPa 0,0 l/m 9,8 km/h (2 Bft) SW 221 3 min 443 W/m 1,0 C 13,9 C 12,9 km/h (3 Bft)
27.02.2019 13:27 15,7 C 37 % 1022,9 hPa 0,0 l/m 8,9 km/h (2 Bft) SW 230 3 min 436 W/m 1,1 C 14,4 C 14,5 km/h (3 Bft)
27.02.2019 13:30 15,9 C 36 % 1022,9 hPa 0,0 l/m 7,8 km/h (2 Bft) S-SW 194 3 min 429 W/m 0,9 C 15,1 C 12,9 km/h (3 Bft)
27.02.2019 13:33 15,9 C 35 % 1022,9 hPa 0,0 l/m 10,4 km/h (2 Bft) SW 232 3 min 415 W/m 0,5 C 13,9 C 17,7 km/h (3 Bft)
27.02.2019 13:36 15,9 C 35 % 1022,8 hPa 0,0 l/m 10,9 km/h (2 Bft) S-SW 202 3 min 397 W/m 0,5 C 13,7 C 16,1 km/h (3 Bft)
27.02.2019 13:39 15,8 C 36 % 1022,7 hPa 0,0 l/m 10,3 km/h (2 Bft) SW 226 3 min 378 W/m 0,8 C 13,9 C 17,7 km/h (3 Bft)
27.02.2019 13:42 15,9 C 35 % 1022,6 hPa 0,0 l/m 11,8 km/h (2 Bft) SW 224 3 min 359 W/m 0,5 C 13,4 C 17,7 km/h (3 Bft)
27.02.2019 13:45 15,9 C 35 % 1022,6 hPa 0,0 l/m 11,5 km/h (2 Bft) SW 234 3 min 323 W/m 0,5 C 13,5 C 17,7 km/h (3 Bft)
27.02.2019 13:48 15,9 C 35 % 1022,5 hPa 0,0 l/m 10,3 km/h (2 Bft) SW 225 3 min 295 W/m 0,5 C 14,0 C 16,1 km/h (3 Bft)
27.02.2019 13:51 16,1 C 36 % 1022,4 hPa 0,0 l/m 8,9 km/h (2 Bft) SW 225 3 min 260 W/m 1,0 C 14,8 C 12,9 km/h (3 Bft)
27.02.2019 13:54 16,2 C 37 % 1022,3 hPa 0,0 l/m 9,5 km/h (2 Bft) S-SW 196 3 min 251 W/m 1,5 C 14,7 C 14,5 km/h (3 Bft)
27.02.2019 13:57 16,3 C 36 % 1022,2 hPa 0,0 l/m 9,4 km/h (2 Bft) S-SW 207 3 min 276 W/m 1,2 C 14,8 C 12,9 km/h (3 Bft)
27.02.2019 14:00 16,4 C 36 % 1022,1 hPa 0,0 l/m 9,8 km/h (2 Bft) SW 224 3 min 327 W/m 1,3 C 14,7 C 14,5 km/h (3 Bft)
27.02.2019 14:03 16,4 C 35 % 1022,1 hPa 0,0 l/m 8,7 km/h (2 Bft) S-SW 211 3 min 369 W/m 0,9 C 15,2 C 12,9 km/h (3 Bft)
27.02.2019 14:06 16,3 C 36 % 1022,1 hPa 0,0 l/m 9,8 km/h (2 Bft) SW 221 3 min 373 W/m 1,2 C 14,6 C 14,5 km/h (3 Bft)
27.02.2019 14:09 16,3 C 36 % 1022,1 hPa 0,0 l/m 9,2 km/h (2 Bft) S-SW 212 3 min 390 W/m 1,2 C 14,9 C 14,5 km/h (3 Bft)
27.02.2019 14:12 16,3 C 37 % 1022,0 hPa 0,0 l/m 8,5 km/h (2 Bft) SW 214 3 min 394 W/m 1,6 C 15,2 C 12,9 km/h (3 Bft)
27.02.2019 14:15 16,4 C 36 % 1021,9 hPa 0,0 l/m 8,7 km/h (2 Bft) SW 225 3 min 394 W/m 1,3 C 15,2 C 14,5 km/h (3 Bft)
27.02.2019 14:18 16,3 C 34 % 1021,9 hPa 0,0 l/m 11,2 km/h (2 Bft) W-SW 237 3 min 394 W/m 0,4 C 14,1 C 19,3 km/h (3 Bft)
27.02.2019 14:21 16,2 C 36 % 1021,9 hPa 0,0 l/m 11,2 km/h (2 Bft) SW 234 3 min 387 W/m 1,1 C 14,0 C 19,3 km/h (3 Bft)
27.02.2019 14:24 16,1 C 35 % 1021,8 hPa 0,0 l/m 12,7 km/h (3 Bft) SW 217 3 min 381 W/m 0,6 C 13,3 C 19,3 km/h (3 Bft)
27.02.2019 14:27 16,1 C 35 % 1021,7 hPa 0,0 l/m 10,5 km/h (2 Bft) SW 235 3 min 378 W/m 0,6 C 14,1 C 17,7 km/h (3 Bft)
27.02.2019 14:30 16,1 C 37 % 1021,7 hPa 0,0 l/m 9,6 km/h (2 Bft) SW 223 3 min 374 W/m 1,4 C 14,5 C 14,5 km/h (3 Bft)
27.02.2019 14:33 16,4 C 38 % 1021,6 hPa 0,0 l/m 7,5 km/h (2 Bft) SW 236 3 min 376 W/m 2,1 C 15,8 C 14,5 km/h (3 Bft)
27.02.2019 14:36 16,4 C 36 % 1021,5 hPa 0,0 l/m 8,7 km/h (2 Bft) W-SW 238 3 min 371 W/m 1,3 C 15,2 C 14,5 km/h (3 Bft)
27.02.2019 14:39 16,3 C 36 % 1021,5 hPa 0,0 l/m 9,9 km/h (2 Bft) SW 214 3 min 366 W/m 1,2 C 14,6 C 12,9 km/h (3 Bft)
27.02.2019 14:42 16,2 C 34 % 1021,5 hPa 0,0 l/m 10,0 km/h (2 Bft) SW 227 3 min 364 W/m 0,3 C 14,4 C 14,5 km/h (3 Bft)
27.02.2019 14:45 16,2 C 36 % 1021,4 hPa 0,0 l/m 11,2 km/h (2 Bft) SW 221 3 min 359 W/m 1,1 C 14,0 C 17,7 km/h (3 Bft)
27.02.2019 14:48 16,1 C 35 % 1021,4 hPa 0,0 l/m 11,4 km/h (2 Bft) SW 225 3 min 355 W/m 0,6 C 13,8 C 16,1 km/h (3 Bft)
27.02.2019 14:51 16,2 C 35 % 1021,4 hPa 0,0 l/m 10,3 km/h (2 Bft) SW 227 3 min 346 W/m 0,7 C 14,3 C 17,7 km/h (3 Bft)
27.02.2019 14:54 16,2 C 36 % 1021,3 hPa 0,0 l/m 10,1 km/h (2 Bft) SW 218 3 min 343 W/m 1,1 C 14,4 C 14,5 km/h (3 Bft)
27.02.2019 14:57 16,2 C 36 % 1021,3 hPa 0,0 l/m 9,2 km/h (2 Bft) SW 222 3 min 338 W/m 1,1 C 14,8 C 12,9 km/h (3 Bft)
27.02.2019 15:00 16,2 C 36 % 1021,2 hPa 0,0 l/m 10,0 km/h (2 Bft) SW 222 3 min 332 W/m 1,1 C 14,4 C 16,1 km/h (3 Bft)
27.02.2019 15:03 16,2 C 35 % 1021,1 hPa 0,0 l/m 9,3 km/h (2 Bft) SW 224 3 min 327 W/m 0,7 C 14,7 C 12,9 km/h (3 Bft)
27.02.2019 15:06 16,3 C 37 % 1021,1 hPa 0,0 l/m 7,6 km/h (2 Bft) SW 220 3 min 322 W/m 1,6 C 15,7 C 11,3 km/h (2 Bft)
27.02.2019 15:09 16,5 C 37 % 1021,0 hPa 0,0 l/m 7,5 km/h (2 Bft) S 188 3 min 316 W/m 1,8 C 15,9 C 16,1 km/h (3 Bft)
27.02.2019 15:12 16,5 C 37 % 1021,0 hPa 0,0 l/m 8,4 km/h (2 Bft) S-SW 201 3 min 311 W/m 1,8 C 15,5 C 12,9 km/h (3 Bft)
27.02.2019 15:15 16,6 C 37 % 1021,0 hPa 0,0 l/m 7,0 km/h (2 Bft) SW 217 3 min 309 W/m 1,9 C 16,3 C 11,3 km/h (2 Bft)
27.02.2019 15:30 16,4 C 37 % 1020,6 hPa 0,0 l/m 8,0 km/h (2 Bft) S-SW 202 15 min 309 W/m 1,7 C 15,6 C 14,5 km/h (3 Bft)
27.02.2019 15:45 16,3 C 38 % 1020,5 hPa 0,0 l/m 8,0 km/h (2 Bft) S-SW 202 15 min 283 W/m 2,0 C 15,5 C 16,1 km/h (3 Bft)
27.02.2019 16:00 16,2 C 40 % 1020,1 hPa 0,0 l/m 8,0 km/h (2 Bft) SW 225 15 min 264 W/m 2,6 C 15,4 C 16,1 km/h (3 Bft)
27.02.2019 16:15 15,8 C 41 % 1019,8 hPa 0,0 l/m 9,7 km/h (2 Bft) SW 225 15 min 230 W/m 2,6 C 14,1 C 17,7 km/h (3 Bft)
27.02.2019 16:30 15,8 C 42 % 1019,4 hPa 0,0 l/m 8,0 km/h (2 Bft) S-SW 202 15 min 186 W/m 2,9 C 14,9 C 16,1 km/h (3 Bft)
27.02.2019 16:45 15,5 C 43 % 1019,1 hPa 0,0 l/m 8,0 km/h (2 Bft) S-SW 202 15 min 151 W/m 3,0 C 14,6 C 19,3 km/h (3 Bft)
27.02.2019 17:00 14,9 C 45 % 1018,8 hPa 0,0 l/m 8,0 km/h (2 Bft) S-SW 202 15 min 113 W/m 3,1 C 14,0 C 17,7 km/h (3 Bft)
27.02.2019 17:15 14,3 C 47 % 1018,6 hPa 0,0 l/m 6,4 km/h (2 Bft) S-SW 202 15 min 76 W/m 3,1 C 14,3 C 11,3 km/h (2 Bft)
27.02.2019 17:30 13,4 C 50 % 1018,3 hPa 0,0 l/m 6,4 km/h (2 Bft) S-SW 202 15 min 49 W/m 3,2 C 13,4 C 14,5 km/h (3 Bft)
27.02.2019 17:45 12,4 C 53 % 1018,2 hPa 0,0 l/m 4,8 km/h (1 Bft) S-SW 202 0 min 14 W/m 3,1 C 12,4 C 9,7 km/h (2 Bft)
27.02.2019 18:00 11,7 C 54 % 1018,1 hPa 0,0 l/m 4,8 km/h (1 Bft) S-SW 202 0 min 11 W/m 2,7 C 11,7 C 9,7 km/h (2 Bft)
27.02.2019 18:15 11,1 C 55 % 1018,0 hPa 0,0 l/m 4,8 km/h (1 Bft) S-SW 202 0 min 0 W/m 2,4 C 11,1 C 8,0 km/h (2 Bft)
27.02.2019 18:30 10,5 C 58 % 1017,7 hPa 0,0 l/m 6,4 km/h (2 Bft) S-SW 202 0 min 0 W/m 2,6 C 10,5 C 9,7 km/h (2 Bft)
27.02.2019 18:45 10,3 C 59 % 1017,6 hPa 0,0 l/m 6,4 km/h (2 Bft) S-SW 202 0 min 0 W/m 2,6 C 10,3 C 9,7 km/h (2 Bft)
27.02.2019 19:00 10,1 C 60 % 1017,4 hPa 0,0 l/m 6,4 km/h (2 Bft) S-SW 202 0 min 0 W/m 2,7 C 10,1 C 9,7 km/h (2 Bft)
27.02.2019 19:15 10,2 C 59 % 1017,4 hPa 0,0 l/m 4,8 km/h (1 Bft) S-SW 202 0 min 0 W/m 2,6 C 10,2 C 8,0 km/h (2 Bft)
27.02.2019 19:30 11,3 C 57 % 1017,1 hPa 0,0 l/m 6,4 km/h (2 Bft) W-SW 247 0 min 0 W/m 3,1 C 11,3 C 12,9 km/h (3 Bft)
27.02.2019 19:45 11,1 C 60 % 1016,8 hPa 0,0 l/m 6,4 km/h (2 Bft) W-SW 247 0 min 0 W/m 3,6 C 11,1 C 16,1 km/h (3 Bft)
27.02.2019 20:00 10,0 C 65 % 1016,6 hPa 0,0 l/m 6,4 km/h (2 Bft) W-SW 247 0 min 0 W/m 3,7 C 10,0 C 12,9 km/h (3 Bft)
27.02.2019 20:15 9,4 C 67 % 1016,4 hPa 0,0 l/m 6,4 km/h (2 Bft) W-SW 247 0 min 0 W/m 3,6 C 9,4 C 9,7 km/h (2 Bft)
27.02.2019 20:30 9,9 C 67 % 1016,2 hPa 0,0 l/m 8,0 km/h (2 Bft) W-SW 247 0 min 0 W/m 4,1 C 8,7 C 16,1 km/h (3 Bft)
27.02.2019 20:45 9,6 C 71 % 1016,2 hPa 0,0 l/m 11,3 km/h (2 Bft) W 270 0 min 0 W/m 4,6 C 6,4 C 19,3 km/h (3 Bft)
27.02.2019 21:00 9,0 C 75 % 1016,1 hPa 0,0 l/m 9,7 km/h (2 Bft) W 270 0 min 0 W/m 4,8 C 6,7 C 20,9 km/h (4 Bft)
27.02.2019 21:15 8,7 C 77 % 1016,0 hPa 0,0 l/m 8,0 km/h (2 Bft) W-SW 247 0 min 0 W/m 4,9 C 7,5 C 17,7 km/h (3 Bft)
27.02.2019 21:30 8,4 C 80 % 1015,9 hPa 0,0 l/m 12,9 km/h (3 Bft) W 270 0 min 0 W/m 5,2 C 4,2 C 20,9 km/h (4 Bft)
27.02.2019 21:45 8,1 C 81 % 1015,7 hPa 0,0 l/m 11,3 km/h (2 Bft) W-SW 247 0 min 0 W/m 5,0 C 4,7 C 20,9 km/h (4 Bft)
27.02.2019 22:00 7,7 C 83 % 1015,4 hPa 0,0 l/m 8,0 km/h (2 Bft) W-SW 247 0 min 0 W/m 5,0 C 6,4 C 14,5 km/h (3 Bft)
27.02.2019 22:15 7,4 C 85 % 1015,2 hPa 0,0 l/m 9,7 km/h (2 Bft) W-SW 247 0 min 0 W/m 5,0 C 4,9 C 19,3 km/h (3 Bft)
27.02.2019 22:30 7,4 C 85 % 1015,1 hPa 0,0 l/m 9,7 km/h (2 Bft) W-SW 247 0 min 0 W/m 5,0 C 4,9 C 22,5 km/h (4 Bft)
27.02.2019 22:45 7,2 C 86 % 1014,9 hPa 0,0 l/m 9,7 km/h (2 Bft) SW 225 0 min 0 W/m 5,0 C 4,7 C 22,5 km/h (4 Bft)
27.02.2019 23:00 7,2 C 87 % 1014,6 hPa 0,0 l/m 9,7 km/h (2 Bft) W-SW 247 0 min 0 W/m 5,2 C 4,7 C 20,9 km/h (4 Bft)
27.02.2019 23:15 7,1 C 87 % 1014,6 hPa 0,0 l/m 9,7 km/h (2 Bft) W-SW 247 0 min 0 W/m 5,1 C 4,6 C 19,3 km/h (3 Bft)
27.02.2019 23:30 6,7 C 87 % 1014,4 hPa 0,0 l/m 8,0 km/h (2 Bft) W-SW 247 0 min 0 W/m 4,7 C 5,4 C 19,3 km/h (3 Bft)
27.02.2019 23:45 6,6 C 88 % 1014,2 hPa 0,0 l/m 6,4 km/h (2 Bft) W-SW 247 0 min 0 W/m 4,8 C 6,6 C 14,5 km/h (3 Bft)
_ Min-Zeit 05:21 14:18 23:45 - 03:27 - - - - 05:21 05:21 03:21
Minimum _ -0,1 C 34 % 1014,2 hPa - 0,3 km/h (0 Bft) - - - - -2,8 C -0,1 C 1,6 km/h (1 Bft)
_ Max-Zeit 15:15 23:45 00:00 00:00 12:00 - - 15:30 12:45 23:00 15:15 22:30
Maximum _ 16,6 C 88 % 1030,4 hPa 0,0 l/m 13,6 km/h
SW (3 Bft)
- - 15 min 461 W/m 5,2 C 16,3 C 22,5 km/h
W-SW (4 Bft)
Durchschnitt _ 7,9 C 65 % 1023,1 hPa #0,0 l/m 6,1 km/h (2 Bft) W - #7:54 h 239 W/m 0,9 C 7,2 C 10,6 km/h (2 Bft)
2019 Cux-Wetter.de -Die Nutzung der Wetterdaten nur mit ausdrcklicher Genehmigung